Time,TemperatureF,DewpointF,PressureIn,WindDirection,WindDirectionDegrees,WindSpeedMPH,WindSpeedGustMPH,Humidity,HourlyPrecipIn,Conditions,Clouds,dailyrainin,SoftwareType,DateUTC
2013-07-20 00:09:00,77.8,73.0,29.64,SSW,200,0.0,1.0,86,0.00,,,0.00,weatherlink.com 1.10,2013-07-20 04:09:00,
2013-07-20 00:24:00,77.8,73.0,29.64,SSW,200,0.0,1.0,86,0.00,,,0.00,weatherlink.com 1.10,2013-07-20 04:24:00,
2013-07-20 00:39:00,76.9,73.0,29.64,SSW,200,0.0,0.0,86,0.00,,,0.00,weatherlink.com 1.10,2013-07-20 04:39:00,
2013-07-20 00:55:00,75.9,72.0,29.63,South,190,0.0,1.0,88,0.00,,,0.00,weatherlink.com 1.10,2013-07-20 04:55:00,
2013-07-20 01:10:00,75.0,72.0,29.63,South,169,0.0,4.0,89,0.00,,,0.00,weatherlink.com 1.10,2013-07-20 05:10:00,
2013-07-20 01:25:00,74.1,71.0,29.63,South,184,1.0,3.0,90,0.00,,,0.00,weatherlink.com 1.10,2013-07-20 05:25:00,
2013-07-20 01:40:00,73.7,71.0,29.62,SSW,210,0.0,1.0,90,0.00,,,0.00,weatherlink.com 1.10,2013-07-20 05:40:00,
2013-07-20 01:55:00,73.4,71.0,29.60,South,184,0.0,3.0,92,0.00,,,0.00,weatherlink.com 1.10,2013-07-20 05:55:00,
2013-07-20 02:10:00,73.6,71.0,29.57,South,186,0.0,1.0,92,0.00,,,0.00,weatherlink.com 1.10,2013-07-20 06:10:00,
2013-07-20 02:25:00,73.3,71.0,29.58,SSE,163,2.0,7.0,93,0.00,,,0.00,weatherlink.com 1.10,2013-07-20 06:25:00,
2013-07-20 02:40:00,70.2,69.0,29.60,SE,141,6.0,14.0,94,0.00,,,0.00,weatherlink.com 1.10,2013-07-20 06:40:00,
2013-07-20 02:55:00,70.8,69.0,29.59,SSE,158,5.0,9.0,95,0.00,,,0.00,weatherlink.com 1.10,2013-07-20 06:55:00,
2013-07-20 03:11:00,70.9,69.0,29.59,SSW,210,0.0,6.0,94,0.00,,,0.00,weatherlink.com 1.10,2013-07-20 07:11:00,
2013-07-20 03:25:00,70.5,69.0,29.60,SW,225,0.0,1.0,94,0.00,,,0.00,weatherlink.com 1.10,2013-07-20 07:25:00,
2013-07-20 03:40:00,70.4,69.0,29.60,South,188,0.0,1.0,94,0.00,,,0.00,weatherlink.com 1.10,2013-07-20 07:40:00,
2013-07-20 03:55:00,70.8,69.0,29.60,SSW,212,0.0,1.0,94,0.00,,,0.00,weatherlink.com 1.10,2013-07-20 07:55:00,
2013-07-20 04:10:00,71.6,70.0,29.60,SW,215,1.0,2.0,96,0.00,,,0.00,weatherlink.com 1.10,2013-07-20 08:10:00,
2013-07-20 04:25:00,72.2,71.0,29.60,SSW,212,0.0,1.0,95,0.00,,,0.00,weatherlink.com 1.10,2013-07-20 08:25:00,
2013-07-20 04:40:00,72.7,71.0,29.61,SSW,192,0.0,2.0,94,0.00,,,0.00,weatherlink.com 1.10,2013-07-20 08:40:00,
2013-07-20 04:55:00,73.9,71.0,29.61,SW,229,0.0,2.0,90,0.00,,,0.00,weatherlink.com 1.10,2013-07-20 08:55:00,
2013-07-20 05:10:00,74.5,70.0,29.62,NNW,327,1.0,2.0,86,0.00,,,0.00,weatherlink.com 1.10,2013-07-20 09:10:00,
2013-07-20 05:25:00,74.7,70.0,29.63,South,190,0.0,1.0,84,0.00,,,0.00,weatherlink.com 1.10,2013-07-20 09:25:00,
2013-07-20 05:40:00,74.3,69.0,29.63,SSW,204,0.0,1.0,84,0.00,,,0.00,weatherlink.com 1.10,2013-07-20 09:40:00,
2013-07-20 05:55:00,74.0,69.0,29.63,South,187,0.0,1.0,85,0.00,,,0.00,weatherlink.com 1.10,2013-07-20 09:55:00,
2013-07-20 06:10:00,74.1,69.0,29.64,South,187,0.0,0.0,85,0.00,,,0.00,weatherlink.com 1.10,2013-07-20 10:10:00,
2013-07-20 06:25:00,74.5,70.0,29.64,South,187,0.0,1.0,85,0.00,,,0.00,weatherlink.com 1.10,2013-07-20 10:25:00,
2013-07-20 06:40:00,74.7,69.0,29.64,South,174,1.0,1.0,83,0.00,,,0.00,weatherlink.com 1.10,2013-07-20 10:40:00,
2013-07-20 06:55:00,75.3,70.0,29.64,SSE,163,0.0,1.0,82,0.00,,,0.00,weatherlink.com 1.10,2013-07-20 10:55:00,
2013-07-20 07:10:00,75.0,69.0,29.64,SSE,166,0.0,1.0,82,0.00,,,0.00,weatherlink.com 1.10,2013-07-20 11:10:00,
2013-07-20 07:25:00,75.0,69.0,29.65,SSE,153,1.0,3.0,81,0.00,,,0.00,weatherlink.com 1.10,2013-07-20 11:25:00,
2013-07-20 07:40:00,75.1,69.0,29.66,SSE,153,0.0,2.0,82,0.00,,,0.00,weatherlink.com 1.10,2013-07-20 11:40:00,
2013-07-20 07:55:00,75.4,69.0,29.66,SE,142,2.0,3.0,81,0.00,,,0.00,weatherlink.com 1.10,2013-07-20 11:55:00,
2013-07-20 08:10:00,77.0,70.0,29.66,SE,142,1.0,5.0,79,0.00,,,0.00,weatherlink.com 1.10,2013-07-20 12:10:00,
2013-07-20 08:25:00,76.7,69.0,29.66,SE,139,2.0,5.0,78,0.00,,,0.00,weatherlink.com 1.10,2013-07-20 12:25:00,
2013-07-20 08:40:00,77.2,70.0,29.65,SSE,148,3.0,4.0,78,0.00,,,0.00,weatherlink.com 1.10,2013-07-20 12:40:00,
2013-07-20 08:55:00,77.0,69.0,29.65,SSE,149,5.0,6.0,77,0.00,,,0.00,weatherlink.com 1.10,2013-07-20 12:55:00,
2013-07-20 09:10:00,76.4,69.0,29.65,SE,141,4.0,5.0,78,0.00,,,0.00,weatherlink.com 1.10,2013-07-20 13:10:00,
2013-07-20 09:25:00,74.6,69.0,29.64,SSE,153,4.0,5.0,82,0.00,,,0.00,weatherlink.com 1.10,2013-07-20 13:25:00,
2013-07-20 09:40:00,76.4,70.0,29.64,SE,145,2.0,3.0,80,0.00,,,0.00,weatherlink.com 1.10,2013-07-20 13:40:00,
2013-07-20 09:55:00,73.8,68.0,29.64,SSE,149,5.0,7.0,81,0.00,,,0.00,weatherlink.com 1.10,2013-07-20 13:55:00,
2013-07-20 10:10:00,72.0,68.0,29.64,SE,143,4.0,9.0,86,0.00,,,0.00,weatherlink.com 1.10,2013-07-20 14:10:00,
2013-07-20 10:25:00,75.2,68.0,29.63,SE,135,7.0,9.0,79,0.00,,,0.00,weatherlink.com 1.10,2013-07-20 14:25:00,
2013-07-20 10:40:00,76.2,70.0,29.63,SSE,155,1.0,5.0,80,0.00,,,0.00,weatherlink.com 1.10,2013-07-20 14:40:00,
2013-07-20 10:55:00,77.3,70.0,29.62,SSE,155,6.0,6.0,77,0.00,,,0.00,weatherlink.com 1.10,2013-07-20 14:55:00,
2013-07-20 11:10:00,74.6,68.0,29.62,SSE,153,6.0,9.0,79,0.00,,,0.00,weatherlink.com 1.10,2013-07-20 15:10:00,
2013-07-20 11:25:00,74.3,69.0,29.62,SE,142,6.0,12.0,82,0.00,,,0.00,weatherlink.com 1.10,2013-07-20 15:25:00,
2013-07-20 11:40:00,74.1,68.0,29.62,SSE,149,6.0,10.0,82,0.00,,,0.00,weatherlink.com 1.10,2013-07-20 15:40:00,
2013-07-20 11:55:00,74.2,68.0,29.62,SE,146,5.0,13.0,82,0.00,,,0.00,weatherlink.com 1.10,2013-07-20 15:55:00,
2013-07-20 12:10:00,74.9,69.0,29.61,SSE,148,8.0,9.0,81,0.00,,,0.00,weatherlink.com 1.10,2013-07-20 16:10:00,
2013-07-20 12:25:00,75.3,70.0,29.61,SE,139,6.0,9.0,82,0.00,,,0.00,weatherlink.com 1.10,2013-07-20 16:25:00,
2013-07-20 12:40:00,76.8,69.0,29.61,SE,134,6.0,11.0,78,0.00,,,0.00,weatherlink.com 1.10,2013-07-20 16:40:00,
2013-07-20 12:56:00,79.0,70.0,29.61,SE,139,6.0,12.0,75,0.00,,,0.00,weatherlink.com 1.10,2013-07-20 16:56:00,
2013-07-20 13:11:00,78.6,70.0,29.60,SSE,148,8.0,12.0,76,0.00,,,0.00,weatherlink.com 1.10,2013-07-20 17:11:00,
2013-07-20 13:26:00,78.5,71.0,29.59,SE,141,8.0,13.0,77,0.00,,,0.00,weatherlink.com 1.10,2013-07-20 17:26:00,
2013-07-20 13:41:00,77.8,70.0,29.59,SE,139,9.0,12.0,77,0.00,,,0.00,weatherlink.com 1.10,2013-07-20 17:41:00,
2013-07-20 13:56:00,77.2,70.0,29.59,SE,146,7.0,13.0,78,0.00,,,0.00,weatherlink.com 1.10,2013-07-20 17:56:00,
2013-07-20 14:11:00,77.9,70.0,29.58,SSE,159,4.0,15.0,77,0.00,,,0.00,weatherlink.com 1.10,2013-07-20 18:11:00,
2013-07-20 14:26:00,78.8,70.0,29.58,SSE,149,8.0,16.0,75,0.00,,,0.00,weatherlink.com 1.10,2013-07-20 18:26:00,
2013-07-20 14:41:00,79.0,71.0,29.58,ESE,121,13.0,15.0,76,0.00,,,0.00,weatherlink.com 1.10,2013-07-20 18:41:00,
2013-07-20 14:56:00,79.2,71.0,29.58,SE,126,11.0,18.0,76,0.00,,,0.00,weatherlink.com 1.10,2013-07-20 18:56:00,
2013-07-20 15:11:00,79.4,71.0,29.58,SE,136,8.0,14.0,75,0.00,,,0.00,weatherlink.com 1.10,2013-07-20 19:11:00,
2013-07-20 15:26:00,77.8,71.0,29.58,SE,139,5.0,9.0,79,0.00,,,0.00,weatherlink.com 1.10,2013-07-20 19:26:00,
2013-07-20 15:41:00,76.3,71.0,29.58,SE,128,5.0,10.0,83,0.00,,,0.00,weatherlink.com 1.10,2013-07-20 19:41:00,
2013-07-20 15:56:00,76.4,71.0,29.59,SE,141,7.0,10.0,83,0.00,,,0.00,weatherlink.com 1.10,2013-07-20 19:56:00,
2013-07-20 16:11:00,77.4,71.0,29.59,SE,142,6.0,10.0,81,0.00,,,0.00,weatherlink.com 1.10,2013-07-20 20:11:00,
2013-07-20 16:26:00,79.2,71.0,29.58,SSE,153,5.0,10.0,76,0.00,,,0.00,weatherlink.com 1.10,2013-07-20 20:26:00,
2013-07-20 16:41:00,79.4,72.0,29.57,SE,145,8.0,9.0,77,0.00,,,0.00,weatherlink.com 1.10,2013-07-20 20:41:00,
2013-07-20 16:56:00,77.5,71.0,29.57,SE,124,7.0,11.0,80,0.00,,,0.00,weatherlink.com 1.10,2013-07-20 20:56:00,
2013-07-20 17:11:00,76.0,70.0,29.57,SSE,159,9.0,14.0,82,0.00,,,0.00,weatherlink.com 1.10,2013-07-20 21:11:00,
2013-07-20 17:26:00,74.5,69.0,29.58,SSE,150,7.0,16.0,84,0.00,,,0.00,weatherlink.com 1.10,2013-07-20 21:26:00,
2013-07-20 17:41:00,74.3,70.0,29.59,SE,139,6.0,10.0,86,0.00,,,0.00,weatherlink.com 1.10,2013-07-20 21:41:00,
2013-07-20 17:56:00,75.2,71.0,29.59,SE,141,4.0,9.0,85,0.00,,,0.00,weatherlink.com 1.10,2013-07-20 21:56:00,
2013-07-20 18:11:00,78.5,72.0,29.60,SE,139,4.0,9.0,80,0.00,,,0.00,weatherlink.com 1.10,2013-07-20 22:11:00,
2013-07-20 18:26:00,79.1,71.0,29.62,West,269,2.0,6.0,76,0.00,,,0.00,weatherlink.com 1.10,2013-07-20 22:26:00,
2013-07-20 19:11:00,79.1,70.0,29.63,SW,220,0.0,1.0,73,0.00,,,0.00,weatherlink.com 1.10,2013-07-20 23:11:00,
2013-07-20 19:26:00,78.1,71.0,29.63,SW,214,0.0,1.0,78,0.06,,,0.06,weatherlink.com 1.10,2013-07-20 23:26:00,
2013-07-20 19:41:00,74.6,69.0,29.64,SW,223,0.0,2.0,83,0.06,,,0.06,weatherlink.com 1.10,2013-07-20 23:41:00,
2013-07-20 20:11:00,72.5,68.0,29.64,SSW,207,0.0,0.0,85,0.06,,,0.06,weatherlink.com 1.10,2013-07-21 00:11:00,
2013-07-20 20:26:00,72.0,68.0,29.65,SSW,207,0.0,1.0,87,0.00,,,0.06,weatherlink.com 1.10,2013-07-21 00:26:00,
2013-07-20 20:41:00,71.4,67.0,29.66,SSW,207,0.0,0.0,86,0.00,,,0.06,weatherlink.com 1.10,2013-07-21 00:41:00,
2013-07-20 20:56:00,71.8,68.0,29.67,SSW,208,0.0,1.0,86,0.00,,,0.06,weatherlink.com 1.10,2013-07-21 00:56:00,
2013-07-20 21:11:00,70.7,67.0,29.68,SSW,207,0.0,0.0,89,0.00,,,0.06,weatherlink.com 1.10,2013-07-21 01:11:00,
2013-07-20 21:41:00,69.2,67.0,29.68,SSW,210,0.0,0.0,92,0.00,,,0.06,weatherlink.com 1.10,2013-07-21 01:41:00,
2013-07-20 21:56:00,68.8,67.0,29.68,SSW,210,0.0,0.0,93,0.00,,,0.06,weatherlink.com 1.10,2013-07-21 01:56:00,
2013-07-20 22:11:00,68.5,67.0,29.69,SSW,211,0.0,1.0,94,0.00,,,0.06,weatherlink.com 1.10,2013-07-21 02:11:00,
2013-07-20 22:26:00,68.4,67.0,29.70,SSW,211,0.0,0.0,95,0.00,,,0.06,weatherlink.com 1.10,2013-07-21 02:26:00,
2013-07-20 22:41:00,68.4,67.0,29.71,SSW,211,0.0,0.0,94,0.00,,,0.06,weatherlink.com 1.10,2013-07-21 02:41:00,
2013-07-20 22:56:00,68.4,67.0,29.71,SSW,211,0.0,0.0,94,0.00,,,0.06,weatherlink.com 1.10,2013-07-21 02:56:00,
2013-07-20 23:11:00,68.4,66.0,29.73,SSW,201,0.0,0.0,93,0.00,,,0.06,weatherlink.com 1.10,2013-07-21 03:11:00,
2013-07-20 23:26:00,71.4,67.0,29.73,SW,220,1.0,4.0,85,0.00,,,0.06,weatherlink.com 1.10,2013-07-21 03:26:00,